White Mountain, AK

1:13 AM AKST on February 21, 2017 (GMT -0900)
White Mountain

Weather History for PAWM - July, 2013

Change the Weather History Date:

Wednesday, July 3, 2013

  Actual Average (PAOM) Record (PAOM)
Temperature  
Mean Temperature 48 °F -  
Max Temperature 50 °F 58 °F 84 °F (1936)
Min Temperature 46 °F 44 °F 28 °F (1924)
Degree Days  
Heating Degree Days 17    
Moisture  
Dew Point 45 °F    
Average Humidity 91    
Maximum Humidity 100    
Minimum Humidity 82    
Precipitation  
Precipitation 0.14 in - - ()
Sea Level Pressure  
Sea Level Pressure 29.66 in    
Wind  
Wind Speed 11 mph (SSE)    
Max Wind Speed 17 mph    
Max Gust Speed 24 mph    
Visibility 9 miles    
Events Rain    
Averages and records for this station are not official NWS values.
T = Trace of Precipitation, MM = Missing Value Source: NWS Daily Summary

Daily Weather History Graph

Daily Weather History Graph

Search for Another Location

Airport or City:

Trip Planner

Search our weather history database for the weather conditions in past years. The results will help you decide how hot, cold, wet, or windy it might be!

Date:

Astronomy

Jul. 03, 2013 Rise Set
Actual Time 4:23 AM AKDT 1:30 AM AKDT
Civil Twilight Sun does not rise Sun does not rise
Nautical Twilight Sun does not rise Sun does not rise
Astronomical Twilight Sun does not rise Sun does not rise
Moon 2:30 AM AKDT (7/3) 8:47 PM AKDT (7/3)
Length of Visible Light 24h 00m
Length of Day
21h 06m
Waning Crescent, 17% of the Moon is Illuminated
Jul 3
Waning Crescent
Jul 7
New
Jul 15
First Quarter
Jul 22
Full
Jul 29
Last Quarter

Hourly Weather History & Observations

Time (AKDT) Temp. Windchill Dew Point Humidity Pressure Visibility Wind Dir Wind Speed Gust Speed Precip Events Conditions
12:58 AM 48.0 °F - 46.9 °F 96% 29.59 in 10.0 mi SE 5.8 mph - 0.00 in   Overcast
1:58 AM 48.0 °F - 46.0 °F 93% 29.61 in 6.0 mi SSE 6.9 mph - 0.01 in Rain Light Rain
2:26 AM 46.4 °F 41.5 °F 46.4 °F 100% 29.57 in 9.0 mi SSE 10.4 mph - 0.01 in Rain Light Rain
2:58 AM 46.9 °F - 46.0 °F 97% 29.62 in 10.0 mi SSE 9.2 mph - 0.01 in Rain Light Rain
3:50 AM 46.4 °F 41.9 °F 44.6 °F 93% 29.59 in 9.0 mi SSE 9.2 mph - 0.01 in Rain Light Rain
3:58 AM 46.9 °F - 45.0 °F 93% 29.62 in 10.0 mi SSE 9.2 mph - 0.01 in Rain Light Rain
4:08 AM 46.4 °F 41.9 °F 46.4 °F 100% 29.59 in 10.0 mi SSE 9.2 mph - 0.00 in Rain Light Rain
4:20 AM 46.4 °F 41.5 °F 44.6 °F 93% 29.59 in 10.0 mi SSE 10.4 mph - 0.00 in Rain Light Rain
4:26 AM 46.4 °F 41.5 °F 46.4 °F 100% 29.59 in 10.0 mi SSE 10.4 mph - 0.00 in Rain Light Rain
4:35 AM 48.2 °F - 46.4 °F 93% 29.59 in 10.0 mi SSE 10.4 mph - 0.00 in Rain Light Rain
4:58 AM 46.9 °F - 46.0 °F 97% 29.63 in 10.0 mi South 12.7 mph - 0.00 in Rain Light Rain
5:27 AM 46.4 °F 41.5 °F 44.6 °F 93% 29.60 in 9.0 mi SSE 10.4 mph - 0.01 in Rain Light Rain
5:58 AM 46.0 °F 41.4 °F 45.0 °F 96% 29.64 in 7.0 mi South 9.2 mph - 0.03 in Rain Light Rain
6:31 AM 46.4 °F 40.7 °F 44.6 °F 93% 29.60 in 9.0 mi SSE 12.7 mph - 0.00 in Rain Light Rain
6:35 AM 46.4 °F 40.4 °F 44.6 °F 93% 29.60 in 9.0 mi SSE 13.8 mph - 0.00 in Rain Light Rain
6:39 AM 46.4 °F 40.7 °F 44.6 °F 93% 29.60 in 9.0 mi SSE 12.7 mph - 0.00 in Rain Light Rain
6:58 AM 46.9 °F - 45.0 °F 93% 29.64 in 9.0 mi SSE 17.3 mph - 0.00 in Rain Light Rain
7:04 AM 46.4 °F 40.7 °F 44.6 °F 93% 29.61 in 9.0 mi SSE 12.7 mph - 0.00 in Rain Light Rain
7:16 AM 46.4 °F 40.4 °F 44.6 °F 93% 29.61 in 9.0 mi SSE 13.8 mph 21.9 mph 0.00 in Rain Light Rain
7:58 AM 46.9 °F - 45.0 °F 93% 29.65 in 10.0 mi SSE 15.0 mph 23.0 mph 0.00 in   Overcast
8:27 AM 46.4 °F 40.1 °F 44.6 °F 93% 29.61 in 9.0 mi SSE 15.0 mph - N/A   Overcast
8:58 AM 46.0 °F 39.6 °F 45.0 °F 96% 29.66 in 8.0 mi SSE 15.0 mph - 0.00 in Rain Light Rain
9:58 AM 46.9 °F - 45.0 °F 93% 29.67 in 10.0 mi SSE 16.1 mph 21.9 mph 0.01 in Rain Light Rain
10:58 AM 46.9 °F - 45.0 °F 93% 29.68 in 7.0 mi SSE 13.8 mph 19.6 mph 0.00 in Rain Light Rain
11:58 AM 46.0 °F 39.6 °F 44.1 °F 93% 29.69 in 5.0 mi SSE 15.0 mph 24.2 mph 0.04 in Rain Rain
12:58 PM 48.0 °F - 45.0 °F 89% 29.70 in 9.0 mi SSE 17.3 mph 24.2 mph 0.03 in Rain Light Rain
1:58 PM 48.0 °F - 45.0 °F 89% 29.71 in 9.0 mi South 16.1 mph 21.9 mph 0.00 in   Overcast
2:11 PM 48.2 °F - 44.6 °F 87% 29.68 in 10.0 mi South 16.1 mph - 0.00 in Rain Light Rain
2:44 PM 48.2 °F - 44.6 °F 87% 29.68 in 10.0 mi SSE 17.3 mph 23.0 mph 0.00 in Rain Light Rain
2:58 PM 48.0 °F - 45.0 °F 89% 29.72 in 10.0 mi South 13.8 mph 21.9 mph 0.00 in Rain Light Rain
3:58 PM 48.9 °F - 45.0 °F 86% 29.73 in 9.0 mi South 11.5 mph 20.7 mph 0.00 in   Overcast
4:58 PM 48.0 °F - 46.0 °F 93% 29.73 in 8.0 mi South 13.8 mph - 0.00 in Rain Light Rain
5:58 PM 48.9 °F - 45.0 °F 86% 29.73 in 10.0 mi South 11.5 mph - 0.00 in   Overcast
6:54 PM 50.0 °F - 44.6 °F 82% 29.69 in 10.0 mi SSE 11.5 mph - N/A   Overcast
6:58 PM 50.0 °F - 45.0 °F 83% 29.73 in 9.0 mi South 11.5 mph - N/A   Overcast
7:36 PM 50.0 °F - 44.6 °F 82% 29.69 in 10.0 mi South 10.4 mph - N/A   Overcast
7:54 PM 50.0 °F - 44.6 °F 82% 29.69 in 9.0 mi SSE 11.5 mph - N/A   Overcast
7:58 PM 50.0 °F - 45.0 °F 83% 29.73 in 10.0 mi SSE 12.7 mph - N/A   Overcast
8:58 PM 50.0 °F - 46.0 °F 86% 29.73 in 10.0 mi SSE 8.1 mph - N/A   Overcast
9:23 PM 50.0 °F - 46.4 °F 87% 29.69 in 10.0 mi SSE 8.1 mph - 0.00 in   Overcast
9:58 PM 50.0 °F - 46.0 °F 86% 29.73 in 10.0 mi SSE 8.1 mph - 0.00 in   Overcast
10:58 PM 50.0 °F - 46.0 °F 86% 29.73 in 10.0 mi SE 5.8 mph - N/A   Overcast
11:58 PM 50.0 °F - 46.9 °F 89% 29.73 in 10.0 mi SE 6.9 mph - N/A   Overcast